#timestamp,LO_Frequency,Hit,StdDev 
1682913615.1,286046997.0,Y
1682913635.9,286046999.2,P
1682913655.7,286046998.3,P
1682913675.5,286046998.2,P
1682913695.4,286047000.8,N
1682913715.2,286046999.1,N
1682913735.0,286046998.7,N
1682913735.9,286046998.7,N
1682913755.8,286046999.0,N
1682913775.6,286047000.9,N
1682913795.5,286046998.5,N
1682913815.3,286047000.7,N
1682913835.1,286046999.2,N
1682913855.9,286046999.0,N
1682913875.7,286046998.8,N
1682913895.5,286046998.1,N
1682913915.4,286046998.4,N
1682913935.2,286046999.4,N
1682913955.0,286046999.6,N
1682913955.9,286046999.6,N
1682913975.8,286046998.2,N
1682913995.6,286046999.3,N
1682914015.5,286046999.4,N
1682914035.3,286046996.9,Y
1682914055.1,286046996.8,P
1682914075.9,286046998.8,N
1682914095.7,286046999.4,N
1682914115.6,286046996.7,Y
1682914135.4,286047000.1,P
1682914155.2,286046998.2,N
1682914175.1,286046996.7,P
1682914176.0,286046996.7,N
1682914195.8,286046999.1,N
1682914215.6,286046997.5,N
1682914235.5,286046997.1,N
1682914255.3,286046998.0,N
1682914275.2,286046996.2,Y
1682914295.9,286046996.6,P
1682914315.7,286046999.0,N
1682914335.6,286047000.7,N
1682914355.4,286047000.3,N
1682914375.2,286046998.2,N
1682914395.1,286047001.2,N
1682914396.0,286047001.2,N
1682914415.8,286046998.3,N
1682914435.7,286047000.5,N
1682914455.5,286047002.0,N
1682914475.3,286047000.0,N
1682914495.2,286047003.9,N
1682914515.9,286047004.3,N
1682914535.7,286047002.7,N
1682914555.6,286046999.8,N
1682914575.4,286047002.8,N
1682914595.2,286046999.8,N
1682914615.1,286047002.7,N
1682914616.0,286047002.7,N
1682914635.8,286047001.1,N
1682914655.7,286047002.3,N
1682914675.5,286047001.3,N
1682914695.3,286047003.8,N
1682914715.2,286047003.8,N
1682914735.0,286047004.0,N
1682914735.9,286047004.0,N
1682914755.7,286047001.3,N
1682914775.6,286047003.5,N
1682914795.4,286047004.2,N
1682914815.3,286047003.4,N
1682914835.1,286047007.6,Y
1682914855.8,286047004.1,P
1682914875.7,286047003.2,N
1682914895.5,286047003.3,P
1682914915.4,286047004.7,Y
1682914935.2,286047003.6,P
1682914955.0,286047001.7,P
1682914986.0,286047002.5,E
1682914995.9,286047002.5,N
1682915015.7,286047000.9,P
1682915035.6,286046998.9,N
1682915055.4,286046999.0,N
1682915075.2,286046999.1,N
1682915095.1,286046998.8,N
1682915096.0,286046998.8,N
1682915115.8,286047001.1,N
1682915135.6,286047000.8,N
1682915155.5,286046998.7,N
1682915175.3,286046996.7,N
1682915195.2,286046997.5,N
1682915215.9,286046995.5,N
1682915235.7,286046995.4,N
1682915255.6,286046995.9,N
1682915275.4,286046993.7,Y
1682915295.2,286046993.9,P
1682915315.1,286046995.3,N
1682915316.0,286046995.3,N
1682915335.8,286046993.4,Y
1682915355.7,286046999.6,P
1682915375.5,286046996.7,N
1682915395.3,286046999.4,N
1682915415.2,286046996.6,N
1682915435.0,286046998.4,N
1682915435.9,286046998.4,N
1682915455.7,286046998.8,N
1682915475.6,286046998.5,N
1682915495.4,286046998.2,N
1682915515.3,286047000.4,N
1682915535.1,286047002.8,N
1682915536.0,286047002.8,N
1682915555.8,286047002.1,N
1682915575.7,286047000.2,N
1682915595.5,286047000.6,N
1682915615.3,286047000.1,N
1682915635.2,286047000.8,N
1682915655.0,286046998.5,N
1682915655.9,286046998.5,N
1682915675.8,286046999.2,N
1682915695.6,286046999.2,N
1682915715.4,286046999.1,N
1682915735.3,286046998.6,N
1682915755.1,286046999.3,N
1682915775.8,286047001.1,N
1682915795.7,286046999.8,N
1682915815.5,286047000.0,N
1682915835.4,286047001.1,N
1682915855.2,286046998.3,N
1682915875.0,286046998.5,N
1682915875.9,286046998.5,N
1682915895.8,286046998.4,N
1682915915.6,286047001.2,N
1682915935.5,286047001.0,N
1682915955.3,286046999.9,N
1682915975.1,286047000.6,N
1682915995.9,286047000.1,N
1682916015.7,286047002.7,N
1682916035.5,286047000.1,N
1682916055.4,286046999.9,N
1682916075.2,286046999.8,N
1682916095.1,286047002.3,N
1682916096.0,286047002.3,N
1682916115.8,286047002.8,N
1682916135.6,286047001.0,N
1682916155.5,286046999.9,N
1682916175.3,286047000.1,N
1682916195.1,286047002.7,N
1682916215.9,286047002.0,N
1682916235.7,286047002.2,N
1682916255.6,286047000.3,N
1682916275.4,286047000.2,N
1682916295.2,286047002.7,N
1682916315.1,286047002.6,N
1682916316.0,286047002.6,N
1682916335.8,286047001.4,N
1682916355.6,286047002.5,N
1682916375.5,286047001.4,N
1682916395.3,286047002.0,N
1682916415.2,286047001.5,N
1682916435.9,286047004.4,Y
1682916455.7,286046999.9,P
1682916475.6,286047001.9,N
1682916495.4,286047003.6,P
1682916515.2,286047003.3,N
1682916535.1,286047005.8,Y
1682916536.0,286047005.8,P
1682916555.8,286047003.8,N
1682916575.7,286047005.5,P
1682916595.5,286047004.0,N
1682916615.3,286047004.0,N
1682916635.2,286047003.6,N
1682916655.0,286047006.0,Y
1682916655.9,286047006.0,P
1682916675.7,286046998.4,N
1682916695.6,286047002.7,N
1682916715.4,286047001.6,N
1682916735.3,286047002.3,N
1682916755.1,286046999.9,N
1682916756.0,286046999.9,N
1682916775.8,286047000.6,N
1682916795.7,286047000.6,N
1682916815.5,286046999.8,N
1682916835.3,286046998.1,N
1682916855.2,286047001.1,N
1682916875.0,286046998.8,N
1682916875.9,286046998.8,N
1682916895.8,286046998.1,N
1682916915.6,286046998.7,N
1682916935.4,286046998.8,N
1682916955.3,286047001.1,N
1682916975.1,286046998.8,N
1682916995.8,286046998.5,N
1682917015.7,286046998.8,N
1682917035.5,286046998.4,N
1682917055.3,286046998.8,N
1682917075.2,286046998.2,N
1682917095.0,286047000.5,N
1682917095.9,286047000.5,N
1682917115.8,286047000.5,N
1682917135.6,286047000.0,N
1682917155.4,286046998.1,N
1682917175.3,286047001.0,N
1682917195.1,286047000.0,N
